SAST,Max TemperatureF,Mean TemperatureF,Min TemperatureF,Max Dew PointF,MeanDew PointF,Min DewpointF,Max Humidity, Mean Humidity, Min Humidity, Max Sea Level PressureIn, Mean Sea Level PressureIn, Min Sea Level PressureIn, Max VisibilityMiles, Mean VisibilityMiles, Min VisibilityMiles, Max Wind SpeedMPH, Mean Wind SpeedMPH, Max Gust SpeedMPH,PrecipitationIn, CloudCover, Events, WindDirDegrees
2013-10-1,93,72,51,48,39,30,58,33,7,30.09,30.01,29.98,19,13,12,20,7,,0.00,,,298
2013-10-2,71,59,47,56,48,36,94,67,43,30.12,30.03,29.98,12,9,6,13,5,,0.00,1,,223
2013-10-3,68,58,49,57,53,48,94,76,53,30.15,30.09,30.01,12,7,6,14,5,,0.12,4,Rain,149
2013-10-4,60,58,55,57,55,54,94,89,73,30.19,30.15,30.09,12,6,2,8,6,,0.08,6,Rain,275
2013-10-5,67,60,51,58,56,50,94,86,68,30.24,30.09,30.04,12,6,1,22,8,,0.87,6,Rain,260
2013-10-6,61,55,49,50,46,43,94,74,48,30.42,30.36,30.27,12,7,3,17,11,,0.00,5,Rain,264
2013-10-7,64,57,50,52,49,48,88,72,54,30.39,30.30,30.21,19,8,6,15,6,,0.00,6,,101
2013-10-8,72,60,47,54,50,45,94,70,34,30.21,30.09,29.98,19,14,12,10,4,,0.00,,,6
2013-10-9,69,60,51,57,53,46,94,75,51,30.12,30.05,30.01,19,8,5,12,6,,0.00,3,,314
2013-10-10,81,66,52,63,56,45,94,72,38,30.01,29.96,29.89,19,7,0,9,5,,0.00,5,Fog,244
2013-10-11,77,67,57,59,56,54,94,79,47,29.95,29.91,29.86,12,8,5,13,4,,0.00,6,,225
2013-10-12,69,60,50,55,49,39,88,72,24,30.18,29.99,29.86,19,8,6,37,12,52,0.63,5,Rain,271
2013-10-13,62,54,46,46,43,40,87,66,41,30.27,30.23,30.18,19,8,6,20,12,,0.00,4,,274
2013-10-14,64,55,46,52,46,41,88,69,49,30.30,30.22,30.12,19,9,6,14,8,,0.00,1,,263
2013-10-15,82,64,47,55,49,45,93,64,21,30.12,30.00,29.87,12,10,6,16,5,,0.00,5,,261
2013-10-16,61,57,53,50,48,45,82,68,53,30.30,30.21,30.12,12,8,6,15,11,,0.01,6,,246
2013-10-17,58,55,52,50,46,44,88,69,50,30.30,30.26,30.24,12,8,6,10,6,24,0.00,6,,268
2013-10-18,64,54,45,54,49,45,88,67,43,30.31,30.25,30.21,19,8,6,14,8,,0.00,3,,130
2013-10-19,67,56,46,57,52,45,94,74,50,30.23,30.09,30.01,19,8,6,22,9,,0.00,3,,106
2013-10-20,68,62,55,58,56,54,94,86,63,30.04,30.00,29.95,12,6,3,16,6,,0.39,6,Rain,240
2013-10-21,61,57,51,54,50,46,94,79,58,30.21,30.13,30.04,19,7,3,18,7,,0.03,6,Rain,228
2013-10-22,65,56,48,50,46,44,87,67,39,30.21,30.15,30.09,19,8,6,10,5,,0.00,3,,270
2013-10-23,67,59,51,59,53,46,88,75,56,30.20,30.17,30.15,19,9,6,16,6,,0.00,3,,124
2013-10-24,75,64,52,63,57,50,94,77,46,30.15,30.03,29.92,19,7,1,12,5,,0.03,2,Fog-Rain-Thunderstorm,113
2013-10-25,64,62,60,63,60,59,94,90,83,30.01,29.92,29.86,12,5,1,15,6,,0.79,6,Rain-Thunderstorm,310
2013-10-26,71,66,61,64,61,59,94,86,70,30.09,30.00,29.94,12,7,2,20,8,,0.00,5,Rain,148
2013-10-27,71,64,58,63,60,57,94,82,64,30.13,30.06,30.01,12,7,4,15,9,,0.00,3,,105
2013-10-28,72,65,58,63,61,57,100,86,67,30.01,29.98,29.95,12,5,0,10,6,,0.00,5,Fog,235
2013-10-29,73,66,60,63,60,57,94,80,58,29.98,29.87,29.80,12,6,2,12,7,,0.03,5,Rain,236
2013-10-30,67,63,57,59,57,53,94,85,57,29.81,29.76,29.68,12,5,2,14,6,,0.12,6,Rain,250
2013-10-31,71,62,52,57,52,46,94,74,39,29.80,29.74,29.71,12,7,4,23,11,,0.16,5,Rain,289